KUIPER-00049

导读

KUIPER-00049是美国亚马逊“柯伊伯计划”低轨卫星互联网项目的卫星,于2025年6月23日发射,属于项目大规模部署阶段的组网卫星。该项目计划发射超过3000颗卫星,旨在为全球提供高速低延迟互联网接入,KUIPER-00049将助力项目构建覆盖全球的卫星通信网络,推动偏远地区联网及边缘云服务的落地。

基本信息
目录编号:
64509
目录名称:
KUIPER-00049
国际标识:
2025-134K
轨道中心:
EARTH
卫星名称:
KUIPER-00049
卫星全名:
KUIPER-00049
卫星状态:
在轨 (已飞行399 天)
发射日期:
2025-06-23 UTC
国别 :
美国 (US)
星等 :
--
轨道信息
数据来源 国际轨道数据 AOE轨道数据
星历时间 2026-07-27T17:19:38+0800
12小时前
查看轨道信息
2026-07-22T07:00:00+0800
5天前
查看轨道信息
半长轴 7007.653km 7007.643km
偏心率 0.0000431 0.0000411
轨道倾角 51.901° 51.902°
近地点辐角 103.549° 130.995°
升交点赤经 330.286° 354.300°
平近点角 256.552° 80.150°
近地点 629.213km 629.217km
远地点 629.819km 629.795km
周期 97.301分钟 97.301分钟
每日圈数 14.799395 14.799424
详细信息
使用方式:
暂无
2D轨道图
3D轨道图
轨道高度分析图
轨道倾角分析图
轨道综合分析图
查看轨道综合分析图